Weather in Kart-Dzhurt

Russia / Karachay-Cherkess Republic     43°30′14″N   42°06′47″E
temp.,
°C
wind,
m/s
gust,
m/s
humid.,
%
clouds,
%
prec.,
mm/h
press.,
hPa
HPBL,
m
19 may, wed
wed1900:00+4s56600 0.0 1013101
03:00+6s576259 0.0 1011125
06:00+7s588546 1.1 1011349
09:00+9ssw577769 5.3 1011695
12:00+10ssw7116916 2.6 10131122
15:00+11ssw711541 2.6 10141483
18:00+8s47530 0.0 1016820
21:00+2ssw57812 0.0 1019143
20 may, thu
thu2000:00+1ssw575628 0.0 1020133
03:00+2ssw6839100 0.0 1019142
06:00+4s57339 0.0 1017129
09:00+14ssw35245 0.0 10141023
12:00+17ssw48250 0.0 10132362
15:00+18ssw48260 0.0 10132494
18:00+15ssw35401 0.0 1014403
21:00+8s56515 0.0 101888
21 may, fri
fri2100:00+8s56415 0.0 101873
03:00+9s56432 0.0 101766
06:00+11s45492 0.0 101670
09:00+21s37265 0.0 10122969
12:00+23s37235 0.0 10113443
15:00+23ssw36229 0.0 10113410
18:00+18ssw2341100 0.0 101380
21:00+12s55592 0.0 101664
22 may, sat
sat2200:00+12s4543100 0.0 101569
03:00+12s5545100 0.1 101568
06:00+13s4546100 0.0 101371
09:00+23e1424100 0.0 10092286
12:00+25n152024 0.0 10083793
15:00+20n345258 0.6 10091175
18:00+15n348792 2.5 1010258
21:00+11ssw3390100 4.5 101240
23 may, sun
sun2300:00+10s3485100 0.4 101175
03:00+9s3386100 0.9 101145
06:00+11s337790 0.0 101050
09:00+18nne22465 0.0 1007941
12:00+21nne44419 0.0 10061539
15:00+18n356824 3.0 1006580
18:00+11se3491100 7.9 1012181
21:00+10s2285100 8.0 101328